Weather History for KNYL - October, 2014

Change the Weather History Date:

Wednesday, October 1, 2014

  Actual Average Record
Temperature  
Mean Temperature 84 °F 83 °F  
Max Temperature 96 °F 96 °F 110 °F (1980)
Min Temperature 71 °F 71 °F 50 °F (1894)
Degree Days  
Heating Degree Days 0 0  
Month to date heating degree days 0 0  
Since 1 July heating degree days 0 0  
Cooling Degree Days 19 18  
Month to date cooling degree days 19 18  
Year to date cooling degree days 4672 4192  
Growing Degree Days 34 (Base 50)    
Moisture  
Dew Point 44 °F    
Average Humidity 29    
Maximum Humidity 43    
Minimum Humidity 15    
Precipitation  
Precipitation 0.00 in 0.01 in 0.95 in (1990)
Month to date precipitation 0.00 0.01  
Year to date precipitation 2.28 2.63  
Sea Level Pressure  
Sea Level Pressure 29.74 in    
Wind  
Wind Speed 4 mph (North)    
Max Wind Speed 10 mph    
Max Gust Speed 12 mph    
Visibility 10 miles    
Events      
T = Trace of Precipitation, MM = Missing Value Source: NWS Daily Summary

Daily Weather History Graph

Daily Weather History Graph

Search for Another Location

Airport or City:

Trip Planner

Search our weather history database for the weather conditions in past years. The results will help you decide how hot, cold, wet, or windy it might be!

Date:

Astronomy

Oct. 01, 2014 Rise Set
Actual Time 6:32 AM MST 6:22 PM MST
Civil Twilight 6:08 AM MST 6:47 PM MST
Nautical Twilight 5:39 AM MST 7:16 PM MST
Astronomical Twilight 5:10 AM MST 7:44 PM MST
Moon 1:23 PM MST (10/1) No Moon Set
Length of Visible Light 12h 39m
Length of Day
11h 50m
Waxing Crescent, 50% of the Moon is Illuminated
Oct 1
Waxing Crescent
Oct 1
First Quarter
Oct 8
Full
Oct 15
Last Quarter
Oct 23
New

Hourly Weather History & Observations

Time (MST) Temp. Heat Index Dew Point Humidity Pressure Visibility Wind Dir Wind Speed Gust Speed Precip Events Conditions
12:57 AM 75.9 °F - 44.1 °F 32% 29.80 in 10.0 mi ENE 4.6 mph - N/A   Clear
1:57 AM 78.1 °F - 51.1 °F 39% 29.68 in 10.0 mi ESE 4.6 mph - N/A   Clear
3:57 AM 75.0 °F - 51.1 °F 43% 29.68 in 10.0 mi NE 4.6 mph - N/A   Clear
4:57 AM 73.0 °F - 48.9 °F 42% 29.69 in 10.0 mi North 4.6 mph - N/A   Clear
5:57 AM 72.0 °F - 46.0 °F 40% 29.70 in 10.0 mi NNE 5.8 mph - N/A   Clear
6:57 AM 73.0 °F - 45.0 °F 37% 29.72 in 10.0 mi Calm Calm - N/A   Clear
7:57 AM 77.0 °F - 46.9 °F 34% 29.74 in 10.0 mi NNE 4.6 mph - N/A   Clear
8:57 AM 81.0 °F - 48.0 °F 31% 29.75 in 10.0 mi NNE 4.6 mph - N/A   Clear
9:57 AM 84.9 °F - 52.0 °F 32% 29.76 in 10.0 mi NE 4.6 mph - N/A   Clear
10:57 AM 87.8 °F - 37.4 °F 17% 29.81 in 10.0 mi Calm Calm - N/A   Smoke
11:57 AM 90.0 °F 88.1 °F 55.9 °F 31% 29.74 in 10.0 mi South 5.8 mph - N/A   Clear
12:57 PM 93.0 °F - 33.1 °F 12% 29.77 in 10.0 mi NE 5.8 mph - N/A   Smoke
1:57 PM 93.2 °F - 35.6 °F 13% 29.74 in 10.0 mi West 4.6 mph - N/A   Smoke
2:57 PM 93.0 °F - 48.9 °F 22% 29.70 in 10.0 mi SW 3.5 mph - N/A   Partly Cloudy
3:57 PM 95.0 °F - 42.1 °F 16% 29.71 in 10.0 mi Calm Calm - N/A   Partly Cloudy
4:57 PM 95.0 °F - 41.0 °F 15% 29.71 in 10.0 mi Calm Calm - N/A   Clear
5:57 PM 93.9 °F - 39.9 °F 15% 29.72 in 10.0 mi Calm Calm - N/A   Clear
6:57 PM 90.0 °F - 46.0 °F 22% 29.73 in 10.0 mi West 4.6 mph - N/A   Clear
7:57 PM 88.0 °F - 45.0 °F 22% 29.75 in 10.0 mi NW 4.6 mph - N/A   Clear
8:57 PM 86.0 °F - 39.9 °F 20% 29.77 in 10.0 mi WNW 4.6 mph - N/A   Clear
9:57 PM 82.9 °F - 43.0 °F 24% 29.79 in 10.0 mi West 4.6 mph - N/A   Clear
10:57 PM 82.0 °F - 39.0 °F 22% 29.80 in 10.0 mi WNW 5.8 mph - N/A   Clear
11:57 PM 82.0 °F - 39.9 °F 22% 29.81 in 10.0 mi NW 6.9 mph - N/A   Clear